Location: Clarks Summit,Pa.
(41.5000°N, 75.6000°W)
Time: 02:23:32
(UTC-05:00)

BlueWalker 3 - Pass Details

Date: 08 December 2022
Orbit: 499 x 517 km, 53.2° (Epoch: 07 February)

Event Time Altitude Azimuth Distance (km) Brightness Sun altitude
Rises 18:46:15 0° 308° (NW) 2,624 6.2 -24.3°
Reaches altitude 10° 18:48:27 10° 309° (NW) 1,731 5.2 -24.7°
Enters shadow 18:51:04 40° 312° (NW) 757 3.0 -25.2°
